TimeCDT,TemperatureF,Dew PointF,Humidity,Sea Level PressureIn,VisibilityMPH,Wind Direction,Wind SpeedMPH,Gust SpeedMPH,PrecipitationIn,Events,Conditions,WindDirDegrees,DateUTC
12:15 AM,48.4,46.4,93,30.05,10.0,Calm,Calm,-,N/A,,Clear,0,2013-05-06 05:15:00
12:35 AM,48.2,46.0,92,30.05,10.0,Calm,Calm,-,N/A,,Clear,0,2013-05-06 05:35:00
12:55 AM,47.7,46.0,94,30.05,10.0,Calm,Calm,-,N/A,,Clear,0,2013-05-06 05:55:00
1:15 AM,47.7,45.5,92,30.04,10.0,Calm,Calm,-,N/A,,Clear,0,2013-05-06 06:15:00
1:35 AM,47.3,45.5,93,30.04,10.0,Calm,Calm,-,N/A,,Clear,0,2013-05-06 06:35:00
1:55 AM,47.3,45.3,93,30.03,10.0,Calm,Calm,-,N/A,,Clear,0,2013-05-06 06:55:00
2:15 AM,46.4,44.8,94,30.03,10.0,Calm,Calm,-,N/A,,Clear,0,2013-05-06 07:15:00
2:35 AM,46.8,44.8,93,30.02,10.0,Calm,Calm,-,N/A,,Clear,0,2013-05-06 07:35:00
2:55 AM,46.8,44.8,93,30.02,10.0,Calm,Calm,-,N/A,,Clear,0,2013-05-06 07:55:00
3:15 AM,46.8,44.8,93,30.02,10.0,Calm,Calm,-,N/A,,Clear,0,2013-05-06 08:15:00
3:35 AM,46.8,45.0,93,30.02,10.0,Calm,Calm,-,N/A,,Clear,0,2013-05-06 08:35:00
3:55 AM,47.1,45.0,92,30.02,10.0,Calm,Calm,-,N/A,,Clear,0,2013-05-06 08:55:00
4:15 AM,48.4,45.1,89,30.02,10.0,Calm,Calm,-,N/A,,Clear,0,2013-05-06 09:15:00
4:35 AM,47.7,45.3,92,30.02,10.0,Calm,Calm,-,N/A,,Clear,0,2013-05-06 09:35:00
4:55 AM,46.6,45.7,97,30.02,10.0,Calm,Calm,-,N/A,,Clear,0,2013-05-06 09:55:00
5:15 AM,46.6,45.5,96,30.02,10.0,Calm,Calm,-,N/A,,Clear,0,2013-05-06 10:15:00
5:35 AM,46.6,45.5,96,30.03,10.0,SW,3.5,-,N/A,,Clear,220,2013-05-06 10:35:00
5:55 AM,46.8,45.1,94,30.03,10.0,Calm,Calm,-,N/A,,Clear,0,2013-05-06 10:55:00
6:15 AM,47.5,45.7,93,30.03,10.0,Calm,Calm,-,N/A,,Clear,0,2013-05-06 11:15:00
6:35 AM,47.7,46.0,94,30.04,10.0,Calm,Calm,-,N/A,,Clear,0,2013-05-06 11:35:00
6:55 AM,49.1,47.3,93,30.04,10.0,Calm,Calm,-,N/A,,Clear,0,2013-05-06 11:55:00
7:15 AM,51.1,49.3,94,30.05,10.0,Calm,Calm,-,N/A,,Clear,0,2013-05-06 12:15:00
7:35 AM,53.4,50.7,91,30.05,10.0,Calm,Calm,-,N/A,,Clear,0,2013-05-06 12:35:00
7:55 AM,56.3,50.7,82,30.06,10.0,SW,3.5,-,N/A,,Clear,230,2013-05-06 12:55:00
8:15 AM,57.6,50.7,78,30.06,10.0,SW,4.6,-,N/A,,Clear,230,2013-05-06 13:15:00
8:35 AM,59.2,50.5,73,30.06,10.0,WSW,5.8,-,N/A,,Clear,250,2013-05-06 13:35:00
8:55 AM,60.4,49.6,68,30.07,10.0,West,3.5,-,N/A,,Clear,260,2013-05-06 13:55:00
9:15 AM,61.7,48.6,62,30.07,10.0,WSW,6.9,-,N/A,,Clear,250,2013-05-06 14:15:00
9:35 AM,63.1,46.4,54,30.07,10.0,West,8.1,-,N/A,,Clear,280,2013-05-06 14:35:00
9:55 AM,63.9,46.2,53,30.07,10.0,West,5.8,-,N/A,,Clear,260,2013-05-06 14:55:00
10:15 AM,64.6,47.1,53,30.06,10.0,West,5.8,-,N/A,,Clear,280,2013-05-06 15:15:00
10:35 AM,66.2,47.7,51,30.06,10.0,West,8.1,-,N/A,,Clear,260,2013-05-06 15:35:00
10:55 AM,65.5,47.3,52,30.06,10.0,West,6.9,-,N/A,,Clear,260,2013-05-06 15:55:00
11:15 AM,66.6,46.8,49,30.06,10.0,WNW,10.4,16.1,N/A,,Clear,290,2013-05-06 16:15:00
11:35 AM,66.9,47.5,50,30.06,10.0,West,9.2,-,N/A,,Clear,280,2013-05-06 16:35:00
11:55 AM,67.5,46.8,47,30.05,10.0,WSW,6.9,16.1,N/A,,Clear,250,2013-05-06 16:55:00
12:15 PM,67.6,46.4,46,30.04,10.0,West,9.2,-,N/A,,Clear,270,2013-05-06 17:15:00
12:35 PM,68.9,47.7,47,30.03,10.0,West,6.9,16.1,N/A,,Clear,270,2013-05-06 17:35:00
12:55 PM,70.0,48.0,46,30.03,10.0,West,8.1,-,N/A,,Clear,280,2013-05-06 17:55:00
1:15 PM,70.3,47.5,44,30.02,10.0,West,9.2,16.1,N/A,,Clear,280,2013-05-06 18:15:00
1:35 PM,70.5,47.7,44,30.01,10.0,WNW,8.1,-,N/A,,Clear,290,2013-05-06 18:35:00
1:55 PM,70.9,47.8,44,30.00,10.0,WSW,10.4,17.3,N/A,,Clear,250,2013-05-06 18:55:00
2:15 PM,71.8,48.7,44,30.00,10.0,WNW,8.1,-,N/A,,Clear,290,2013-05-06 19:15:00
2:35 PM,72.3,49.3,44,30.00,10.0,WSW,4.6,-,N/A,,Clear,240,2013-05-06 19:35:00
2:55 PM,72.5,49.3,44,29.98,10.0,SW,11.5,16.1,N/A,,Clear,230,2013-05-06 19:55:00
3:15 PM,72.5,48.7,43,29.98,10.0,WSW,9.2,-,N/A,,Clear,240,2013-05-06 20:15:00
3:35 PM,73.6,50.2,44,29.97,10.0,WSW,10.4,-,N/A,,Clear,240,2013-05-06 20:35:00
3:55 PM,73.6,49.6,43,29.96,10.0,West,6.9,17.3,N/A,,Clear,260,2013-05-06 20:55:00
4:15 PM,73.8,49.5,42,29.95,10.0,West,5.8,17.3,N/A,,Clear,260,2013-05-06 21:15:00
4:35 PM,73.8,49.8,43,29.95,10.0,WSW,11.5,-,N/A,,Clear,250,2013-05-06 21:35:00
4:55 PM,74.3,49.8,42,29.95,10.0,WNW,8.1,-,N/A,,Clear,290,2013-05-06 21:55:00
5:15 PM,74.3,50.4,43,29.94,10.0,WNW,8.1,-,N/A,,Clear,300,2013-05-06 22:15:00
5:55 PM,73.4,50.2,44,29.95,10.0,West,9.2,-,N/A,,Clear,260,2013-05-06 22:55:00
6:15 PM,73.0,50.7,45,29.94,10.0,WSW,6.9,-,N/A,,Clear,250,2013-05-06 23:15:00
6:35 PM,72.5,50.7,46,29.94,10.0,WSW,4.6,-,N/A,,Clear,240,2013-05-06 23:35:00
6:55 PM,70.9,52.0,51,29.95,10.0,Calm,Calm,-,N/A,,Clear,0,2013-05-06 23:55:00
7:15 PM,70.0,52.2,53,29.95,10.0,Calm,Calm,-,N/A,,Scattered Clouds,0,2013-05-07 00:15:00
7:35 PM,69.3,52.3,55,29.96,10.0,Calm,Calm,-,N/A,,Mostly Cloudy,0,2013-05-07 00:35:00
7:55 PM,68.5,52.7,57,29.97,10.0,Calm,Calm,-,N/A,,Mostly Cloudy,0,2013-05-07 00:55:00
8:15 PM,66.7,53.8,63,29.98,10.0,Calm,Calm,-,N/A,,Mostly Cloudy,0,2013-05-07 01:15:00
8:35 PM,65.3,54.0,67,29.98,10.0,SW,4.6,-,N/A,,Clear,220,2013-05-07 01:35:00
8:55 PM,63.0,54.9,75,29.98,10.0,Calm,Calm,-,N/A,,Clear,0,2013-05-07 01:55:00
9:15 PM,61.2,55.6,82,29.99,10.0,SW,3.5,-,N/A,,Clear,220,2013-05-07 02:15:00
9:35 PM,62.4,55.4,78,29.99,10.0,SSW,3.5,-,N/A,,Clear,210,2013-05-07 02:35:00
9:55 PM,62.6,55.4,77,30.00,10.0,SW,4.6,-,N/A,,Clear,220,2013-05-07 02:55:00
10:15 PM,62.6,55.4,77,30.00,10.0,SW,4.6,-,N/A,,Clear,220,2013-05-07 03:15:00
10:35 PM,61.7,55.6,80,30.01,10.0,Calm,Calm,-,N/A,,Clear,0,2013-05-07 03:35:00
10:55 PM,61.3,55.8,82,30.01,10.0,SW,3.5,-,N/A,,Clear,220,2013-05-07 03:55:00
11:15 PM,60.1,55.9,86,30.01,10.0,Calm,Calm,-,N/A,,Clear,0,2013-05-07 04:15:00
11:35 PM,60.1,56.3,87,30.00,10.0,Calm,Calm,-,N/A,,Clear,0,2013-05-07 04:35:00
11:55 PM,59.9,56.3,88,30.00,10.0,Calm,Calm,-,N/A,,Clear,0,2013-05-07 04:55:00